Regional Weather Roundup
Issued by NWS Northern Indiana

Home | Current Version | Previous Version | Text Only | Print | Product List | Glossary Off
Versions: 1 2 3 4 5 6 7 8 9 10 11 12 13 14 15 16 17 18 19 20 21 22 23 24 25 26 27 28 29 30 31 32 33 34 35 36 37 38 39 40 41 42 43 44 45 46 47 48 49 50

000
ASUS43 KIWX 180110
RWRIWX

KIWX WEATHER ROUNDUP
NATIONAL WEATHER SERVICE NORTHERN INDIANA
800 PM EST WED DEC 17 2014

NOTE: "FAIR" INDICATES FEW OR NO CLOUDS BELOW 12,000 FEET WITH NO
SIGNIFICANT WEATHER AND/OR OBSTRUCTIONS TO VISIBILITY.

* THESE STATIONS ARE NOT UNDER NWS QUALITY CONTROL. THEY ALSO MAY NOT
  REPORT WEATHER SUCH AS PRECIPITATION OR FOG.

INZ001>027-180200-
NORTHERN INDIANA

CITY           SKY/WX    TMP DP  RH WIND       PRES   REMARKS
GARY*          CLOUDY    28  18  64 W9        30.27S WCI  20
VALPARAISO     CLOUDY    25  17  72 W9        30.25S WCI  15
MICHIGAN CITY* CLOUDY    28  18  64 NW5       30.25R WCI  23
LAPORTE*       CLOUDY    28  22  76 W7        30.24S WCI  21
KNOX*          CLOUDY    26  20  78 W7        30.24S WCI  19
SOUTH BEND     CLOUDY    28  21  75 NW8       30.22F WCI  20
GOSHEN         CLOUDY    27  22  81 W9        30.21S WCI  18
MONTICELLO*    CLOUDY    26  19  75 NW7       30.27R WCI  19
LOGANSPORT*    CLOUDY    27  19  74 W6        30.27S WCI  20
ROCHESTER*     CLOUDY    30  23  74 W7        30.25S WCI  23
WARSAW*        CLOUDY    27  21  80 W8        30.22F WCI  18
ANGOLA*        CLOUDY    27  21  80 W8        30.18S WCI  18
FORT WAYNE     CLOUDY    26  21  81 W14       30.23S WCI  14
HUNTINGTON*    CLOUDY    26  20  80 W7        30.23S WCI  18
PERU/GRISSOM   CLOUDY    26  23  89 NW8       30.25S WCI  17
MARION*        CLOUDY    25  22  88 NW9       30.26S WCI  16

$$
INZ028>050-180200-
CENTRAL INDIANA

CITY           SKY/WX    TMP DP  RH WIND       PRES   REMARKS
LAFAYETTE      CLOUDY    25  20  81 W7        30.29R WCI  17
KOKOMO*        CLOUDY    27  19  74 NW10      30.26S WCI  17
MUNCIE*        CLOUDY    25  20  81 W10       30.25S WCI  15
INDIANAPOLIS   CLOUDY    24  19  81 NW7       30.27R WCI  16

$$
MIZ043>046-050>051-056>058-064>065-071>073-077>080-180200-
SOUTHWEST LOWER MICHIGAN

CITY           SKY/WX    TMP DP  RH WIND       PRES   REMARKS
BATTLE CREEK   CLOUDY    29  20  69 NW9G20    30.18R WCI  20
BENTON HARBOR  CLOUDY    28  19  69 NW8       30.22S WCI  20
COLDWATER*     CLOUDY    28  20  73 W12G18    30.18R WCI  17
HILLSDALE*     CLOUDY    28  23  82 W13       30.15R WCI  17
HOLLAND        CLOUDY    31  19  61 NW10G16   30.20R WCI  22
GRAND RAPIDS   FLURRIES  28  19  69 W12       30.17S WCI  18
KALAMAZOO      CLOUDY    29  19  66 NW12      30.19R WCI  19
STURGIS*       CLOUDY    27  19  74 W8G17     30.19S WCI  18
THREE RIVERS*  CLOUDY    29  20  70 W13       30.20S WCI  18

$$
OHZ001>008-015>018-024>025-180200-
NORTHWEST OHIO

CITY           SKY/WX    TMP DP  RH WIND       PRES   REMARKS
WAUSEON*       CLOUDY    28  21  74 W13       30.17S WCI  18
FINDLAY        CLOUDY    29  22  75 W16       30.19R WCI  17
TOLEDO EXPRESS CLOUDY    28  19  69 W12       30.17S WCI  18
TOLEDO METCALF CLOUDY    30  19  63 W18       30.18R WCI  18
LIMA           CLOUDY    30  21  69 W15       30.20S WCI  19

$$
AND FOR LAKE MICHIGAN COASTAL AND OPEN LAKE BUOY OBSERVATIONS

STATION/POSITION TEMP    WIND        PRES    VSBY  WAVE
                 AIR SEA DIR/SP/G                  HT/PER
                 (F)     (DEG/KT/KT) (MB)    (MI)  (FT/S)
CALUMET HARBOR    26     280/  8/ 12 1023.5S
SAINT JOSEPH      30     280/ 13/ 16 1023.7F

$$
&&


USA.gov is the U.S. government's official web portal to all federal, state and local government web resources and services.